owner,sensor,date,latitude,longitude,vertical_datum,mass_concentration_of_oxygen_in_sea_water,qcFlag 
DISL,ioos:station:DISL:PPTA:1,2013-05-01T00:00:00Z,30.2791,-87.5561,1.375,7.43,1111122 
DISL,ioos:station:DISL:PPTA:1,2013-05-01T00:30:00Z,30.2791,-87.5561,1.386,6.98,1111122 
DISL,ioos:station:DISL:PPTA:1,2013-05-01T01:00:00Z,30.2791,-87.5561,1.348,7.1,1111122 
DISL,ioos:station:DISL:PPTA:1,2013-05-01T01:30:00Z,30.2791,-87.5561,1.34,6.83,1111122 
DISL,ioos:station:DISL:PPTA:1,2013-05-01T02:00:00Z,30.2791,-87.5561,1.338,7.01,1111122 
DISL,ioos:station:DISL:PPTA:1,2013-05-01T02:30:00Z,30.2791,-87.5561,1.339,7.22,1111122 
DISL,ioos:station:DISL:PPTA:1,2013-05-01T03:00:00Z,30.2791,-87.5561,1.301,7.11,1111122 
DISL,ioos:station:DISL:PPTA:1,2013-05-01T03:30:00Z,30.2791,-87.5561,1.305,7.23,1111122 
DISL,ioos:station:DISL:PPTA:1,2013-05-01T04:00:00Z,30.2791,-87.5561,1.289,7.23,1111122 
DISL,ioos:station:DISL:PPTA:1,2013-05-01T04:30:00Z,30.2791,-87.5561,1.275,7.21,1111122 
DISL,ioos:station:DISL:PPTA:1,2013-05-01T05:00:00Z,30.2791,-87.5561,1.273,6.97,1111122 
DISL,ioos:station:DISL:PPTA:1,2013-05-01T05:30:00Z,30.2791,-87.5561,1.262,7.08,1111122 
DISL,ioos:station:DISL:PPTA:1,2013-05-01T06:00:00Z,30.2791,-87.5561,1.257,6.94,1111122 
DISL,ioos:station:DISL:PPTA:1,2013-05-01T06:30:00Z,30.2791,-87.5561,1.258,6.86,1111122 
DISL,ioos:station:DISL:PPTA:1,2013-05-01T07:00:00Z,30.2791,-87.5561,1.261,6.75,1111122 
DISL,ioos:station:DISL:PPTA:1,2013-05-01T07:30:00Z,30.2791,-87.5561,1.236,6.89,1111122 
DISL,ioos:station:DISL:PPTA:1,2013-05-01T08:00:00Z,30.2791,-87.5561,1.228,6.65,1111122 
DISL,ioos:station:DISL:PPTA:1,2013-05-01T08:30:00Z,30.2791,-87.5561,1.254,7.01,1111122 
DISL,ioos:station:DISL:PPTA:1,2013-05-01T09:00:00Z,30.2791,-87.5561,1.264,6.81,1111122 
DISL,ioos:station:DISL:PPTA:1,2013-05-01T09:30:00Z,30.2791,-87.5561,1.297,6.34,1111122 
DISL,ioos:station:DISL:PPTA:1,2013-05-01T10:00:00Z,30.2791,-87.5561,1.296,6.53,1111122 
DISL,ioos:station:DISL:PPTA:1,2013-05-01T10:30:00Z,30.2791,-87.5561,1.308,6.22,1111122 
DISL,ioos:station:DISL:PPTA:1,2013-05-01T11:00:00Z,30.2791,-87.5561,1.287,6.05,1111122 
DISL,ioos:station:DISL:PPTA:1,2013-05-01T11:30:00Z,30.2791,-87.5561,1.307,5.98,1111122 
DISL,ioos:station:DISL:PPTA:1,2013-05-01T12:00:00Z,30.2791,-87.5561,1.334,6.17,1111122 
DISL,ioos:station:DISL:PPTA:1,2013-05-01T12:30:00Z,30.2791,-87.5561,1.359,6.63,1111122 
DISL,ioos:station:DISL:PPTA:1,2013-05-01T13:00:00Z,30.2791,-87.5561,1.368,6.54,1111122 
DISL,ioos:station:DISL:PPTA:1,2013-05-01T13:30:00Z,30.2791,-87.5561,1.381,6.65,1111122 
DISL,ioos:station:DISL:PPTA:1,2013-05-01T14:00:00Z,30.2791,-87.5561,1.425,6.7,1111122 
DISL,ioos:station:DISL:PPTA:1,2013-05-01T14:30:00Z,30.2791,-87.5561,1.417,6.8,1111122 
DISL,ioos:station:DISL:PPTA:1,2013-05-01T15:00:00Z,30.2791,-87.5561,1.454,6.71,1111122 
DISL,ioos:station:DISL:PPTA:1,2013-05-01T15:30:00Z,30.2791,-87.5561,1.495,6.81,1111122 
DISL,ioos:station:DISL:PPTA:1,2013-05-01T16:00:00Z,30.2791,-87.5561,1.475,6.96,1111122 
DISL,ioos:station:DISL:PPTA:1,2013-05-01T16:30:00Z,30.2791,-87.5561,1.471,6.98,1111122 
DISL,ioos:station:DISL:PPTA:1,2013-05-01T17:00:00Z,30.2791,-87.5561,1.522,6.9,1111122 
DISL,ioos:station:DISL:PPTA:1,2013-05-01T17:30:00Z,30.2791,-87.5561,1.547,6.95,1111122 
DISL,ioos:station:DISL:PPTA:1,2013-05-01T18:00:00Z,30.2791,-87.5561,1.551,6.76,1111122 
DISL,ioos:station:DISL:PPTA:1,2013-05-01T18:30:00Z,30.2791,-87.5561,1.559,6.86,1111122 
DISL,ioos:station:DISL:PPTA:1,2013-05-01T19:00:00Z,30.2791,-87.5561,1.593,6.92,1111122 
DISL,ioos:station:DISL:PPTA:1,2013-05-01T19:30:00Z,30.2791,-87.5561,1.562,6.77,1111122 
DISL,ioos:station:DISL:PPTA:1,2013-05-01T20:00:00Z,30.2791,-87.5561,1.557,7.0,1111122 
DISL,ioos:station:DISL:PPTA:1,2013-05-01T20:30:00Z,30.2791,-87.5561,1.6,7.02,1111122 
DISL,ioos:station:DISL:PPTA:1,2013-05-01T21:00:00Z,30.2791,-87.5561,1.575,6.7,1111122 
DISL,ioos:station:DISL:PPTA:1,2013-05-01T21:30:00Z,30.2791,-87.5561,1.581,6.97,1111122 
DISL,ioos:station:DISL:PPTA:1,2013-05-01T22:00:00Z,30.2791,-87.5561,1.615,7.12,1111122 
DISL,ioos:station:DISL:PPTA:1,2013-05-01T22:30:00Z,30.2791,-87.5561,1.569,7.21,1111122 
DISL,ioos:station:DISL:PPTA:1,2013-05-01T23:00:00Z,30.2791,-87.5561,1.578,7.03,1111122 
DISL,ioos:station:DISL:PPTA:1,2013-05-01T23:30:00Z,30.2791,-87.5561,1.576,7.14,1111122 
DISL,ioos:station:DISL:PPTA:1,2013-05-02T00:00:00Z,30.2791,-87.5561,1.571,6.91,1111122 
DISL,ioos:station:DISL:PPTA:1,2013-05-02T00:30:00Z,30.2791,-87.5561,1.586,7.12,1111122 
DISL,ioos:station:DISL:PPTA:1,2013-05-02T01:00:00Z,30.2791,-87.5561,1.544,7.06,1111122 
DISL,ioos:station:DISL:PPTA:1,2013-05-02T01:30:00Z,30.2791,-87.5561,1.536,6.99,1111122 
DISL,ioos:station:DISL:PPTA:1,2013-05-02T02:00:00Z,30.2791,-87.5561,1.516,7.07,1111122 
DISL,ioos:station:DISL:PPTA:1,2013-05-02T02:30:00Z,30.2791,-87.5561,1.51,6.98,1111122 
DISL,ioos:station:DISL:PPTA:1,2013-05-02T03:00:00Z,30.2791,-87.5561,1.532,6.98,1111122 
DISL,ioos:station:DISL:PPTA:1,2013-05-02T03:30:00Z,30.2791,-87.5561,1.498,6.92,1111122 
DISL,ioos:station:DISL:PPTA:1,2013-05-02T04:00:00Z,30.2791,-87.5561,1.486,6.86,1111122 
DISL,ioos:station:DISL:PPTA:1,2013-05-02T04:30:00Z,30.2791,-87.5561,1.475,6.77,1111122 
DISL,ioos:station:DISL:PPTA:1,2013-05-02T05:00:00Z,30.2791,-87.5561,1.465,6.93,1111122 
DISL,ioos:station:DISL:PPTA:1,2013-05-02T05:30:00Z,30.2791,-87.5561,1.483,6.94,1111122 
DISL,ioos:station:DISL:PPTA:1,2013-05-02T06:00:00Z,30.2791,-87.5561,1.478,6.76,1111122 
DISL,ioos:station:DISL:PPTA:1,2013-05-02T06:30:00Z,30.2791,-87.5561,1.452,6.76,1111122 
DISL,ioos:station:DISL:PPTA:1,2013-05-02T07:00:00Z,30.2791,-87.5561,1.457,6.7,1111122 
DISL,ioos:station:DISL:PPTA:1,2013-05-02T07:30:00Z,30.2791,-87.5561,1.473,6.68,1111122 
DISL,ioos:station:DISL:PPTA:1,2013-05-02T08:00:00Z,30.2791,-87.5561,1.529,6.8,1111122 
DISL,ioos:station:DISL:PPTA:1,2013-05-02T08:30:00Z,30.2791,-87.5561,1.503,6.65,1111122 
DISL,ioos:station:DISL:PPTA:1,2013-05-02T09:00:00Z,30.2791,-87.5561,1.466,6.8,1111122 
DISL,ioos:station:DISL:PPTA:1,2013-05-02T09:30:00Z,30.2791,-87.5561,1.418,6.78,1111122 
DISL,ioos:station:DISL:PPTA:1,2013-05-02T10:00:00Z,30.2791,-87.5561,1.434,6.84,1111122 
DISL,ioos:station:DISL:PPTA:1,2013-05-02T10:30:00Z,30.2791,-87.5561,1.469,6.92,1111122 
DISL,ioos:station:DISL:PPTA:1,2013-05-02T11:00:00Z,30.2791,-87.5561,1.448,6.84,1111122 
DISL,ioos:station:DISL:PPTA:1,2013-05-02T11:30:00Z,30.2791,-87.5561,1.473,6.83,1111122 
DISL,ioos:station:DISL:PPTA:1,2013-05-02T12:00:00Z,30.2791,-87.5561,1.427,6.7,1111122 
DISL,ioos:station:DISL:PPTA:1,2013-05-02T12:30:00Z,30.2791,-87.5561,1.462,6.76,1111122 
DISL,ioos:station:DISL:PPTA:1,2013-05-02T13:00:00Z,30.2791,-87.5561,1.415,7.0,1111122 
DISL,ioos:station:DISL:PPTA:1,2013-05-02T13:30:00Z,30.2791,-87.5561,1.46,6.94,1111122 
DISL,ioos:station:DISL:PPTA:1,2013-05-02T14:00:00Z,30.2791,-87.5561,1.503,6.84,1111122 
DISL,ioos:station:DISL:PPTA:1,2013-05-02T14:30:00Z,30.2791,-87.5561,1.476,6.49,1111122 
DISL,ioos:station:DISL:PPTA:1,2013-05-02T15:00:00Z,30.2791,-87.5561,1.464,6.53,1111122 
DISL,ioos:station:DISL:PPTA:1,2013-05-02T15:30:00Z,30.2791,-87.5561,1.497,6.46,1111122 
DISL,ioos:station:DISL:PPTA:1,2013-05-02T16:00:00Z,30.2791,-87.5561,1.49,6.68,1111122 
DISL,ioos:station:DISL:PPTA:1,2013-05-02T16:30:00Z,30.2791,-87.5561,1.51,6.56,1111122 
DISL,ioos:station:DISL:PPTA:1,2013-05-02T17:00:00Z,30.2791,-87.5561,1.528,7.13,1111122 
DISL,ioos:station:DISL:PPTA:1,2013-05-02T17:30:00Z,30.2791,-87.5561,1.488,6.93,1111122 
DISL,ioos:station:DISL:PPTA:1,2013-05-02T18:00:00Z,30.2791,-87.5561,1.509,7.03,1111122 
DISL,ioos:station:DISL:PPTA:1,2013-05-02T18:30:00Z,30.2791,-87.5561,1.507,7.29,1111122 
DISL,ioos:station:DISL:PPTA:1,2013-05-02T19:00:00Z,30.2791,-87.5561,1.518,7.21,1111122 
DISL,ioos:station:DISL:PPTA:1,2013-05-02T19:30:00Z,30.2791,-87.5561,1.526,7.52,1111122 
DISL,ioos:station:DISL:PPTA:1,2013-05-02T20:00:00Z,30.2791,-87.5561,1.519,7.61,1111122 
DISL,ioos:station:DISL:PPTA:1,2013-05-02T20:30:00Z,30.2791,-87.5561,1.532,7.74,1111122 
DISL,ioos:station:DISL:PPTA:1,2013-05-02T21:00:00Z,30.2791,-87.5561,1.497,7.52,1111122 
DISL,ioos:station:DISL:PPTA:1,2013-05-02T21:30:00Z,30.2791,-87.5561,1.493,7.88,1111122 
DISL,ioos:station:DISL:PPTA:1,2013-05-02T22:00:00Z,30.2791,-87.5561,1.466,7.97,1111122 
DISL,ioos:station:DISL:PPTA:1,2013-05-02T22:30:00Z,30.2791,-87.5561,1.486,8.1,1111122 
DISL,ioos:station:DISL:PPTA:1,2013-05-02T23:00:00Z,30.2791,-87.5561,1.483,7.86,1111122 
DISL,ioos:station:DISL:PPTA:1,2013-05-02T23:30:00Z,30.2791,-87.5561,1.484,8.0,1111122 
DISL,ioos:station:DISL:PPTA:1,2013-05-03T00:00:00Z,30.2791,-87.5561,1.47,7.95,1111122 
DISL,ioos:station:DISL:PPTA:1,2013-05-03T00:30:00Z,30.2791,-87.5561,1.48,7.87,1111122 
DISL,ioos:station:DISL:PPTA:1,2013-05-03T01:00:00Z,30.2791,-87.5561,1.464,7.7,1111122 
DISL,ioos:station:DISL:PPTA:1,2013-05-03T01:30:00Z,30.2791,-87.5561,1.44,7.58,1111122 
DISL,ioos:station:DISL:PPTA:1,2013-05-03T02:00:00Z,30.2791,-87.5561,1.429,7.5,1111122 
DISL,ioos:station:DISL:PPTA:1,2013-05-03T02:30:00Z,30.2791,-87.5561,1.425,7.57,1111122 
DISL,ioos:station:DISL:PPTA:1,2013-05-03T03:00:00Z,30.2791,-87.5561,1.421,7.33,1111122 
DISL,ioos:station:DISL:PPTA:1,2013-05-03T03:30:00Z,30.2791,-87.5561,1.396,7.3,1111122 
DISL,ioos:station:DISL:PPTA:1,2013-05-03T04:00:00Z,30.2791,-87.5561,1.402,7.46,1111122 
DISL,ioos:station:DISL:PPTA:1,2013-05-03T04:30:00Z,30.2791,-87.5561,1.38,7.28,1111122 
DISL,ioos:station:DISL:PPTA:1,2013-05-03T05:00:00Z,30.2791,-87.5561,1.371,7.37,1111122 
DISL,ioos:station:DISL:PPTA:1,2013-05-03T05:30:00Z,30.2791,-87.5561,1.353,7.37,1111122 
DISL,ioos:station:DISL:PPTA:1,2013-05-03T06:00:00Z,30.2791,-87.5561,1.373,7.34,1111122 
DISL,ioos:station:DISL:PPTA:1,2013-05-03T06:30:00Z,30.2791,-87.5561,1.374,7.23,1111122 
DISL,ioos:station:DISL:PPTA:1,2013-05-03T07:00:00Z,30.2791,-87.5561,1.367,7.03,1111122 
DISL,ioos:station:DISL:PPTA:1,2013-05-03T07:30:00Z,30.2791,-87.5561,1.366,7.04,1111122 
DISL,ioos:station:DISL:PPTA:1,2013-05-03T08:00:00Z,30.2791,-87.5561,1.369,7.07,1111122 
DISL,ioos:station:DISL:PPTA:1,2013-05-03T08:30:00Z,30.2791,-87.5561,1.362,7.17,1111122 
DISL,ioos:station:DISL:PPTA:1,2013-05-03T09:00:00Z,30.2791,-87.5561,1.365,7.07,1111122 
DISL,ioos:station:DISL:PPTA:1,2013-05-03T09:30:00Z,30.2791,-87.5561,1.357,7.1,1111122 
DISL,ioos:station:DISL:PPTA:1,2013-05-03T10:00:00Z,30.2791,-87.5561,1.369,7.25,1111122 
DISL,ioos:station:DISL:PPTA:1,2013-05-03T10:30:00Z,30.2791,-87.5561,1.369,6.88,1111122 
DISL,ioos:station:DISL:PPTA:1,2013-05-03T11:00:00Z,30.2791,-87.5561,1.382,6.49,1111122 
DISL,ioos:station:DISL:PPTA:1,2013-05-03T11:30:00Z,30.2791,-87.5561,1.389,6.47,1111122 
DISL,ioos:station:DISL:PPTA:1,2013-05-03T12:00:00Z,30.2791,-87.5561,1.39,6.48,1111122 
DISL,ioos:station:DISL:PPTA:1,2013-05-03T12:30:00Z,30.2791,-87.5561,1.414,6.48,1111122 
DISL,ioos:station:DISL:PPTA:1,2013-05-03T13:00:00Z,30.2791,-87.5561,1.428,6.41,1111122 
DISL,ioos:station:DISL:PPTA:1,2013-05-03T13:30:00Z,30.2791,-87.5561,1.441,6.42,1111122 
DISL,ioos:station:DISL:PPTA:1,2013-05-03T14:00:00Z,30.2791,-87.5561,1.424,6.38,1111122 
DISL,ioos:station:DISL:PPTA:1,2013-05-03T14:30:00Z,30.2791,-87.5561,1.433,6.48,1111122 
DISL,ioos:station:DISL:PPTA:1,2013-05-03T15:00:00Z,30.2791,-87.5561,1.411,6.52,1111122 
DISL,ioos:station:DISL:PPTA:1,2013-05-03T15:30:00Z,30.2791,-87.5561,1.443,6.73,1111122 
DISL,ioos:station:DISL:PPTA:1,2013-05-03T16:00:00Z,30.2791,-87.5561,1.454,6.68,1111122 
DISL,ioos:station:DISL:PPTA:1,2013-05-03T16:30:00Z,30.2791,-87.5561,1.442,6.7,1111122 
DISL,ioos:station:DISL:PPTA:1,2013-05-03T17:00:00Z,30.2791,-87.5561,1.439,6.62,1111122 
DISL,ioos:station:DISL:PPTA:1,2013-05-03T17:30:00Z,30.2791,-87.5561,1.458,6.79,1111122 
DISL,ioos:station:DISL:PPTA:1,2013-05-03T18:00:00Z,30.2791,-87.5561,1.461,6.62,1111122 
DISL,ioos:station:DISL:PPTA:1,2013-05-03T18:30:00Z,30.2791,-87.5561,1.457,7.01,1111122 
DISL,ioos:station:DISL:PPTA:1,2013-05-03T19:00:00Z,30.2791,-87.5561,1.494,7.14,1111122 
DISL,ioos:station:DISL:PPTA:1,2013-05-03T19:30:00Z,30.2791,-87.5561,1.469,7.12,1111122 
DISL,ioos:station:DISL:PPTA:1,2013-05-03T20:00:00Z,30.2791,-87.5561,1.467,6.97,1111122 
DISL,ioos:station:DISL:PPTA:1,2013-05-03T20:30:00Z,30.2791,-87.5561,1.472,7.26,1111122 
DISL,ioos:station:DISL:PPTA:1,2013-05-03T21:00:00Z,30.2791,-87.5561,1.463,7.65,1111122 
DISL,ioos:station:DISL:PPTA:1,2013-05-03T21:30:00Z,30.2791,-87.5561,1.458,7.42,1111122 
DISL,ioos:station:DISL:PPTA:1,2013-05-03T22:00:00Z,30.2791,-87.5561,1.467,7.96,1111122 
DISL,ioos:station:DISL:PPTA:1,2013-05-03T22:30:00Z,30.2791,-87.5561,1.47,8.14,1111122 
DISL,ioos:station:DISL:PPTA:1,2013-05-03T23:00:00Z,30.2791,-87.5561,1.454,7.96,1111122 
DISL,ioos:station:DISL:PPTA:1,2013-05-03T23:30:00Z,30.2791,-87.5561,1.467,7.81,1111122 
DISL,ioos:station:DISL:PPTA:1,2013-05-04T00:00:00Z,30.2791,-87.5561,1.459,8.04,1111122 
DISL,ioos:station:DISL:PPTA:1,2013-05-04T00:30:00Z,30.2791,-87.5561,1.441,7.91,1111122 
DISL,ioos:station:DISL:PPTA:1,2013-05-04T01:00:00Z,30.2791,-87.5561,1.417,7.84,1111122 
DISL,ioos:station:DISL:PPTA:1,2013-05-04T01:30:00Z,30.2791,-87.5561,1.417,7.79,1111122 
DISL,ioos:station:DISL:PPTA:1,2013-05-04T02:00:00Z,30.2791,-87.5561,1.385,7.55,1111122 
DISL,ioos:station:DISL:PPTA:1,2013-05-04T02:30:00Z,30.2791,-87.5561,1.368,7.51,1111122 
DISL,ioos:station:DISL:PPTA:1,2013-05-04T03:00:00Z,30.2791,-87.5561,1.354,7.35,1111122 
DISL,ioos:station:DISL:PPTA:1,2013-05-04T03:30:00Z,30.2791,-87.5561,1.335,7.28,1111122 
DISL,ioos:station:DISL:PPTA:1,2013-05-04T04:00:00Z,30.2791,-87.5561,1.328,7.52,1111122 
DISL,ioos:station:DISL:PPTA:1,2013-05-04T04:30:00Z,30.2791,-87.5561,1.297,7.5,1111122 
DISL,ioos:station:DISL:PPTA:1,2013-05-04T05:00:00Z,30.2791,-87.5561,1.267,7.45,1111122 
DISL,ioos:station:DISL:PPTA:1,2013-05-04T05:30:00Z,30.2791,-87.5561,1.252,7.47,1111122 
DISL,ioos:station:DISL:PPTA:1,2013-05-04T06:00:00Z,30.2791,-87.5561,1.27,7.37,1111122 
DISL,ioos:station:DISL:PPTA:1,2013-05-04T06:30:00Z,30.2791,-87.5561,1.254,7.53,1111122 
DISL,ioos:station:DISL:PPTA:1,2013-05-04T07:00:00Z,30.2791,-87.5561,1.243,7.56,1111122 
DISL,ioos:station:DISL:PPTA:1,2013-05-04T07:30:00Z,30.2791,-87.5561,1.246,7.48,1111122 
DISL,ioos:station:DISL:PPTA:1,2013-05-04T08:00:00Z,30.2791,-87.5561,1.251,7.32,1111122 
DISL,ioos:station:DISL:PPTA:1,2013-05-04T08:30:00Z,30.2791,-87.5561,1.246,7.47,1111122 
DISL,ioos:station:DISL:PPTA:1,2013-05-04T09:00:00Z,30.2791,-87.5561,1.258,7.44,1111122 
DISL,ioos:station:DISL:PPTA:1,2013-05-04T09:30:00Z,30.2791,-87.5561,1.266,7.46,1111122 
DISL,ioos:station:DISL:PPTA:1,2013-05-04T10:00:00Z,30.2791,-87.5561,1.244,7.29,1111122 
DISL,ioos:station:DISL:PPTA:1,2013-05-04T10:30:00Z,30.2791,-87.5561,1.261,7.44,1111122 
DISL,ioos:station:DISL:PPTA:1,2013-05-04T11:00:00Z,30.2791,-87.5561,1.235,7.43,1111122 
DISL,ioos:station:DISL:PPTA:1,2013-05-04T11:30:00Z,30.2791,-87.5561,1.22,7.19,1111122 
DISL,ioos:station:DISL:PPTA:1,2013-05-04T12:00:00Z,30.2791,-87.5561,1.233,7.16,1111122 
DISL,ioos:station:DISL:PPTA:1,2013-05-04T12:30:00Z,30.2791,-87.5561,1.234,6.51,1111122 
DISL,ioos:station:DISL:PPTA:1,2013-05-04T13:00:00Z,30.2791,-87.5561,1.252,7.17,1111122 
DISL,ioos:station:DISL:PPTA:1,2013-05-04T13:30:00Z,30.2791,-87.5561,1.256,7.43,1111122 
DISL,ioos:station:DISL:PPTA:1,2013-05-04T14:00:00Z,30.2791,-87.5561,1.264,7.38,1111122 
DISL,ioos:station:DISL:PPTA:1,2013-05-04T14:30:00Z,30.2791,-87.5561,1.251,7.33,1111122 
DISL,ioos:station:DISL:PPTA:1,2013-05-04T15:00:00Z,30.2791,-87.5561,1.24,7.07,1111122 
DISL,ioos:station:DISL:PPTA:1,2013-05-04T15:30:00Z,30.2791,-87.5561,1.233,6.96,1111122 
DISL,ioos:station:DISL:PPTA:1,2013-05-04T16:00:00Z,30.2791,-87.5561,1.217,7.53,1111122 
DISL,ioos:station:DISL:PPTA:1,2013-05-04T16:30:00Z,30.2791,-87.5561,1.219,7.75,1111122 
DISL,ioos:station:DISL:PPTA:1,2013-05-04T17:00:00Z,30.2791,-87.5561,1.246,7.74,1111122 
DISL,ioos:station:DISL:PPTA:1,2013-05-04T17:30:00Z,30.2791,-87.5561,1.233,7.72,1111122 
DISL,ioos:station:DISL:PPTA:1,2013-05-04T18:00:00Z,30.2791,-87.5561,1.242,7.23,1111122 
DISL,ioos:station:DISL:PPTA:1,2013-05-04T18:30:00Z,30.2791,-87.5561,1.239,7.68,1111122 
DISL,ioos:station:DISL:PPTA:1,2013-05-04T19:00:00Z,30.2791,-87.5561,1.243,8.05,1111122 
DISL,ioos:station:DISL:PPTA:1,2013-05-04T19:30:00Z,30.2791,-87.5561,1.235,8.06,1111122 
DISL,ioos:station:DISL:PPTA:1,2013-05-04T20:00:00Z,30.2791,-87.5561,1.252,7.44,1111122 
DISL,ioos:station:DISL:PPTA:1,2013-05-04T20:30:00Z,30.2791,-87.5561,1.245,7.06,1111122 
DISL,ioos:station:DISL:PPTA:1,2013-05-04T21:00:00Z,30.2791,-87.5561,1.238,7.27,1111122 
DISL,ioos:station:DISL:PPTA:1,2013-05-04T21:30:00Z,30.2791,-87.5561,1.251,6.5,1111122 
DISL,ioos:station:DISL:PPTA:1,2013-05-04T22:00:00Z,30.2791,-87.5561,1.244,7.28,1111122 
DISL,ioos:station:DISL:PPTA:1,2013-05-04T22:30:00Z,30.2791,-87.5561,1.252,7.31,1111122 
DISL,ioos:station:DISL:PPTA:1,2013-05-04T23:00:00Z,30.2791,-87.5561,1.25,7.23,1111122 
DISL,ioos:station:DISL:PPTA:1,2013-05-04T23:30:00Z,30.2791,-87.5561,1.278,7.05,1111122 
DISL,ioos:station:DISL:PPTA:1,2013-05-05T00:00:00Z,30.2791,-87.5561,1.248,7.13,1111122 
DISL,ioos:station:DISL:PPTA:1,2013-05-05T00:30:00Z,30.2791,-87.5561,1.266,6.88,1111122 
DISL,ioos:station:DISL:PPTA:1,2013-05-05T01:00:00Z,30.2791,-87.5561,1.263,5.95,1111122 
DISL,ioos:station:DISL:PPTA:1,2013-05-05T01:30:00Z,30.2791,-87.5561,1.269,6.88,1111122 
DISL,ioos:station:DISL:PPTA:1,2013-05-05T02:00:00Z,30.2791,-87.5561,1.275,6.74,1111122 
DISL,ioos:station:DISL:PPTA:1,2013-05-05T02:30:00Z,30.2791,-87.5561,1.238,6.55,1111122 
DISL,ioos:station:DISL:PPTA:1,2013-05-05T03:00:00Z,30.2791,-87.5561,1.261,6.56,1111122 
DISL,ioos:station:DISL:PPTA:1,2013-05-05T03:30:00Z,30.2791,-87.5561,1.248,7.29,1111122 
DISL,ioos:station:DISL:PPTA:1,2013-05-05T04:00:00Z,30.2791,-87.5561,1.242,7.98,1111122 
DISL,ioos:station:DISL:PPTA:1,2013-05-05T04:30:00Z,30.2791,-87.5561,1.242,7.44,1111122 
DISL,ioos:station:DISL:PPTA:1,2013-05-05T05:00:00Z,30.2791,-87.5561,1.244,6.59,1111122 
DISL,ioos:station:DISL:PPTA:1,2013-05-05T05:30:00Z,30.2791,-87.5561,1.253,7.51,1111122 
DISL,ioos:station:DISL:PPTA:1,2013-05-05T06:00:00Z,30.2791,-87.5561,1.25,7.33,1111122 
DISL,ioos:station:DISL:PPTA:1,2013-05-05T06:30:00Z,30.2791,-87.5561,1.237,7.12,1111122 
DISL,ioos:station:DISL:PPTA:1,2013-05-05T07:00:00Z,30.2791,-87.5561,1.246,7.77,1111122 
DISL,ioos:station:DISL:PPTA:1,2013-05-05T07:30:00Z,30.2791,-87.5561,1.269,7.76,1111122 
DISL,ioos:station:DISL:PPTA:1,2013-05-05T08:00:00Z,30.2791,-87.5561,1.254,7.26,1111122 
DISL,ioos:station:DISL:PPTA:1,2013-05-05T08:30:00Z,30.2791,-87.5561,1.242,7.55,1111122 
DISL,ioos:station:DISL:PPTA:1,2013-05-05T09:00:00Z,30.2791,-87.5561,1.25,7.24,1111122 
DISL,ioos:station:DISL:PPTA:1,2013-05-05T09:30:00Z,30.2791,-87.5561,1.241,7.38,1111122 
DISL,ioos:station:DISL:PPTA:1,2013-05-05T10:00:00Z,30.2791,-87.5561,1.234,7.18,1111122 
DISL,ioos:station:DISL:PPTA:1,2013-05-05T10:30:00Z,30.2791,-87.5561,1.248,6.85,1111122 
DISL,ioos:station:DISL:PPTA:1,2013-05-05T11:00:00Z,30.2791,-87.5561,1.256,7.47,1111122 
DISL,ioos:station:DISL:PPTA:1,2013-05-05T11:30:00Z,30.2791,-87.5561,1.254,7.07,1111122 
DISL,ioos:station:DISL:PPTA:1,2013-05-05T12:00:00Z,30.2791,-87.5561,1.263,7.31,1111122 
DISL,ioos:station:DISL:PPTA:1,2013-05-05T12:30:00Z,30.2791,-87.5561,1.249,7.45,1111122 
DISL,ioos:station:DISL:PPTA:1,2013-05-05T13:00:00Z,30.2791,-87.5561,1.228,6.61,1111122 
DISL,ioos:station:DISL:PPTA:1,2013-05-05T13:30:00Z,30.2791,-87.5561,1.208,6.03,1111122 
DISL,ioos:station:DISL:PPTA:1,2013-05-05T14:00:00Z,30.2791,-87.5561,1.203,6.35,1111122 
DISL,ioos:station:DISL:PPTA:1,2013-05-05T14:30:00Z,30.2791,-87.5561,1.192,6.52,1111122 
DISL,ioos:station:DISL:PPTA:1,2013-05-05T15:00:00Z,30.2791,-87.5561,1.152,6.72,1111122 
DISL,ioos:station:DISL:PPTA:1,2013-05-05T15:30:00Z,30.2791,-87.5561,1.135,7.0,1111122 
DISL,ioos:station:DISL:PPTA:1,2013-05-05T16:00:00Z,30.2791,-87.5561,1.135,7.51,1111122 
DISL,ioos:station:DISL:PPTA:1,2013-05-05T16:30:00Z,30.2791,-87.5561,1.109,7.61,1111122 
DISL,ioos:station:DISL:PPTA:1,2013-05-05T17:00:00Z,30.2791,-87.5561,1.099,7.6,1111122 
DISL,ioos:station:DISL:PPTA:1,2013-05-05T17:30:00Z,30.2791,-87.5561,1.098,7.73,1111122 
DISL,ioos:station:DISL:PPTA:1,2013-05-05T18:00:00Z,30.2791,-87.5561,1.1,7.68,1111122 
DISL,ioos:station:DISL:PPTA:1,2013-05-05T18:30:00Z,30.2791,-87.5561,1.102,7.73,1111122 
DISL,ioos:station:DISL:PPTA:1,2013-05-05T19:00:00Z,30.2791,-87.5561,1.095,8.06,1111122 
DISL,ioos:station:DISL:PPTA:1,2013-05-05T19:30:00Z,30.2791,-87.5561,1.075,8.18,1111122 
DISL,ioos:station:DISL:PPTA:1,2013-05-05T20:00:00Z,30.2791,-87.5561,1.076,8.12,1111122 
DISL,ioos:station:DISL:PPTA:1,2013-05-05T20:30:00Z,30.2791,-87.5561,1.087,8.28,1111122 
DISL,ioos:station:DISL:PPTA:1,2013-05-05T21:00:00Z,30.2791,-87.5561,1.084,8.16,1111122 
DISL,ioos:station:DISL:PPTA:1,2013-05-05T21:30:00Z,30.2791,-87.5561,1.074,8.11,1111122 
DISL,ioos:station:DISL:PPTA:1,2013-05-05T22:00:00Z,30.2791,-87.5561,1.083,7.89,1111122 
DISL,ioos:station:DISL:PPTA:1,2013-05-05T22:30:00Z,30.2791,-87.5561,1.091,7.88,1111122 
DISL,ioos:station:DISL:PPTA:1,2013-05-05T23:00:00Z,30.2791,-87.5561,1.098,8.0,1111122 
DISL,ioos:station:DISL:PPTA:1,2013-05-05T23:30:00Z,30.2791,-87.5561,1.074,8.22,1111122 
DISL,ioos:station:DISL:PPTA:1,2013-05-06T00:00:00Z,30.2791,-87.5561,1.089,8.31,1111122 
DISL,ioos:station:DISL:PPTA:1,2013-05-06T00:30:00Z,30.2791,-87.5561,1.091,8.33,1111122 
DISL,ioos:station:DISL:PPTA:1,2013-05-06T01:00:00Z,30.2791,-87.5561,1.087,8.1,1111122 
DISL,ioos:station:DISL:PPTA:1,2013-05-06T01:30:00Z,30.2791,-87.5561,1.101,7.89,1111122 
DISL,ioos:station:DISL:PPTA:1,2013-05-06T02:00:00Z,30.2791,-87.5561,1.09,8.16,1111122 
DISL,ioos:station:DISL:PPTA:1,2013-05-06T02:30:00Z,30.2791,-87.5561,1.101,7.83,1111122 
DISL,ioos:station:DISL:PPTA:1,2013-05-06T03:00:00Z,30.2791,-87.5561,1.084,7.39,1111122 
DISL,ioos:station:DISL:PPTA:1,2013-05-06T03:30:00Z,30.2791,-87.5561,1.094,7.74,1111122 
DISL,ioos:station:DISL:PPTA:1,2013-05-06T04:00:00Z,30.2791,-87.5561,1.084,7.46,1111122 
DISL,ioos:station:DISL:PPTA:1,2013-05-06T04:30:00Z,30.2791,-87.5561,1.085,7.36,1111122 
DISL,ioos:station:DISL:PPTA:1,2013-05-06T05:00:00Z,30.2791,-87.5561,1.074,7.38,1111122 
DISL,ioos:station:DISL:PPTA:1,2013-05-06T05:30:00Z,30.2791,-87.5561,1.087,7.38,1111122 
DISL,ioos:station:DISL:PPTA:1,2013-05-06T06:00:00Z,30.2791,-87.5561,1.079,7.34,1111122 
DISL,ioos:station:DISL:PPTA:1,2013-05-06T06:30:00Z,30.2791,-87.5561,1.098,7.37,1111122 
DISL,ioos:station:DISL:PPTA:1,2013-05-06T07:00:00Z,30.2791,-87.5561,1.109,7.04,1111122 
DISL,ioos:station:DISL:PPTA:1,2013-05-06T07:30:00Z,30.2791,-87.5561,1.112,6.88,1111122 
DISL,ioos:station:DISL:PPTA:1,2013-05-06T08:00:00Z,30.2791,-87.5561,1.115,6.73,1111122 
DISL,ioos:station:DISL:PPTA:1,2013-05-06T08:30:00Z,30.2791,-87.5561,1.123,6.59,1111122 
DISL,ioos:station:DISL:PPTA:1,2013-05-06T09:00:00Z,30.2791,-87.5561,1.134,6.27,1111122 
DISL,ioos:station:DISL:PPTA:1,2013-05-06T09:30:00Z,30.2791,-87.5561,1.145,6.0,1111122 
DISL,ioos:station:DISL:PPTA:1,2013-05-06T10:00:00Z,30.2791,-87.5561,1.155,5.86,1111122 
DISL,ioos:station:DISL:PPTA:1,2013-05-06T10:30:00Z,30.2791,-87.5561,1.17,6.17,1111122 
DISL,ioos:station:DISL:PPTA:1,2013-05-06T11:00:00Z,30.2791,-87.5561,1.176,6.04,1111122 
DISL,ioos:station:DISL:PPTA:1,2013-05-06T11:30:00Z,30.2791,-87.5561,1.19,5.86,1111122 
DISL,ioos:station:DISL:PPTA:1,2013-05-06T12:00:00Z,30.2791,-87.5561,1.19,6.27,1111122 
DISL,ioos:station:DISL:PPTA:1,2013-05-06T12:30:00Z,30.2791,-87.5561,1.199,6.28,1111122 
DISL,ioos:station:DISL:PPTA:1,2013-05-06T13:00:00Z,30.2791,-87.5561,1.205,6.14,1111122 
DISL,ioos:station:DISL:PPTA:1,2013-05-06T13:30:00Z,30.2791,-87.5561,1.205,6.23,1111122 
DISL,ioos:station:DISL:PPTA:1,2013-05-06T14:00:00Z,30.2791,-87.5561,1.206,6.21,1111122 
DISL,ioos:station:DISL:PPTA:1,2013-05-06T14:30:00Z,30.2791,-87.5561,1.207,6.23,1111122 
DISL,ioos:station:DISL:PPTA:1,2013-05-06T15:00:00Z,30.2791,-87.5561,1.204,6.48,1111122 
DISL,ioos:station:DISL:PPTA:1,2013-05-06T15:30:00Z,30.2791,-87.5561,1.186,6.69,1111122 